Weather History for Grand Prairie, TX

Change the Weather History Date:

Monday, February 3, 2014

  Actual Average (KDFW) Record (KDFW)
Temperature  
Mean Temperature 36 °F 48 °F  
Max Temperature 42 °F 58 °F 84 °F (1911)
Min Temperature 30 °F 37 °F 14 °F (1996)
Degree Days  
Heating Degree Days 29 18  
Month to date heating degree days 54  
Since 1 July heating degree days 1559  
Cooling Degree Days 0 0  
Month to date cooling degree days 0  
Year to date cooling degree days 2  
Moisture  
Dew Point 29 °F    
Average Humidity 83    
Maximum Humidity 87    
Minimum Humidity 66    
Precipitation  
Precipitation 0.00 in 0.08 in 1.79 in (1993)
Month to date precipitation 0.24  
Year to date precipitation 2.37  
Snow  
Snow 0.00 in 0.10 in 0.20 in (2011)
Month to date snowfall 0.1  
Since 1 July snowfall 0.7  
Snow Depth -    
Sea Level Pressure  
Sea Level Pressure 30.20 in    
Wind  
Wind Speed 6 mph (NNE)    
Max Wind Speed 9 mph    
Max Gust Speed -    
Visibility 10 miles    
Events      
T = Trace of Precipitation, MM = Missing Value Source: NWS Daily Summary

Daily Weather History Graph

Daily Weather History Graph

Search for Another Location

Airport:

Trip Planner

Search our weather history database for the weather conditions in past years. The results will help you decide how hot, cold, wet, or windy it might be!

Date:

Astronomy

Feb. 03, 2014 Rise Set
Actual Time 7:21 AM CST 6:02 PM CST
Civil Twilight 6:55 AM CST 6:28 PM CST
Nautical Twilight 6:26 AM CST 6:58 PM CST
Astronomical Twilight 5:57 AM CST 7:27 PM CST
Moon 9:41 AM CST (2/3) 10:35 PM CST (2/3)
Length of Visible Light 11h 32m
Length of Day
10h 41m
Waxing Crescent, 20% of the Moon is Illuminated
Feb 3
Waxing Crescent
Feb 6
First Quarter
Feb 14
Full
Feb 22
Last Quarter
Mar 1
New

Hourly Weather History & Observations

Time (CST) Temp. Windchill Dew Point Humidity Pressure Visibility Wind Dir Wind Speed Gust Speed Precip Events Conditions
12:15 AM 32.0 °F 25.6 °F 26.6 °F 80% 30.29 in 10.0 mi North 6.9 mph - N/A   Overcast
12:35 AM 32.0 °F 26.4 °F 26.6 °F 80% 30.29 in 10.0 mi NNW 5.8 mph - N/A   Overcast
12:55 AM 32.0 °F 25.6 °F 26.6 °F 80% 30.29 in 10.0 mi North 6.9 mph - N/A   Overcast
1:15 AM 32.0 °F 25.6 °F 26.6 °F 80% 30.29 in 10.0 mi North 6.9 mph - N/A   Overcast
1:35 AM 30.2 °F 21.9 °F 26.6 °F 86% 30.29 in 10.0 mi North 9.2 mph - N/A   Overcast
1:55 AM 30.2 °F 24.3 °F 26.6 °F 86% 30.31 in 10.0 mi North 5.8 mph - N/A   Overcast
2:15 AM 30.2 °F 24.3 °F 26.6 °F 86% 30.30 in 10.0 mi North 5.8 mph - N/A   Overcast
2:35 AM 30.2 °F 22.6 °F 26.6 °F 86% 30.30 in 10.0 mi North 8.1 mph - N/A   Overcast
2:55 AM 30.2 °F 21.9 °F 26.6 °F 86% 30.29 in 10.0 mi North 9.2 mph - N/A   Mostly Cloudy
3:15 AM 30.2 °F 21.9 °F 26.6 °F 86% 30.29 in 10.0 mi North 9.2 mph - N/A   Mostly Cloudy
3:35 AM 30.2 °F 22.6 °F 26.6 °F 86% 30.28 in 10.0 mi North 8.1 mph - N/A   Mostly Cloudy
3:55 AM 30.2 °F 23.4 °F 26.6 °F 86% 30.29 in 10.0 mi North 6.9 mph - N/A   Overcast
4:15 AM 30.2 °F 21.9 °F 26.6 °F 86% 30.28 in 10.0 mi North 9.2 mph - N/A   Overcast
4:35 AM 30.2 °F 21.9 °F 26.6 °F 86% 30.28 in 10.0 mi North 9.2 mph - N/A   Overcast
4:55 AM 30.2 °F 23.4 °F 26.6 °F 86% 30.28 in 10.0 mi North 6.9 mph - N/A   Overcast
5:15 AM 30.2 °F 22.6 °F 26.6 °F 86% 30.27 in 10.0 mi NNE 8.1 mph - N/A   Overcast
5:35 AM 30.2 °F 23.4 °F 26.6 °F 86% 30.26 in 10.0 mi North 6.9 mph - N/A   Overcast
5:55 AM 30.2 °F 24.3 °F 26.6 °F 86% 30.26 in 10.0 mi North 5.8 mph - N/A   Overcast
7:50 AM 30.2 °F 26.7 °F 26.6 °F 86% 30.29 in 10.0 mi North 3.5 mph - N/A   Overcast
8:50 AM 30.2 °F - 26.6 °F 86% 30.30 in 10.0 mi Calm Calm - N/A   Overcast
9:50 AM 32.0 °F 26.4 °F 26.6 °F 80% 30.30 in 7.0 mi North 5.8 mph - N/A   Overcast
10:50 AM 33.8 °F 29.6 °F 26.6 °F 75% 30.30 in 10.0 mi NNE 4.6 mph - N/A   Overcast
11:50 AM 35.6 °F 31.7 °F 28.4 °F 75% 30.28 in 10.0 mi North 4.6 mph - N/A   Overcast
12:50 PM 35.6 °F - 28.4 °F 75% 30.24 in 10.0 mi Calm Calm - N/A   Overcast
1:50 PM 35.6 °F 29.9 °F 28.4 °F 75% 30.20 in 10.0 mi NE 6.9 mph - N/A   Overcast
2:50 PM 39.2 °F 34.2 °F 30.2 °F 70% 30.17 in 10.0 mi NNE 6.9 mph - N/A   Overcast
3:50 PM 42.8 °F 37.5 °F 32.0 °F 66% 30.14 in 10.0 mi NE 9.2 mph - N/A   Scattered Clouds
4:50 PM 42.8 °F 38.0 °F 32.0 °F 66% 30.13 in 10.0 mi ENE 8.1 mph - N/A   Mostly Cloudy
5:50 PM 42.8 °F 38.6 °F 32.0 °F 66% 30.11 in 10.0 mi East 6.9 mph - N/A   Overcast
8:15 PM 37.4 °F 32.1 °F 33.8 °F 87% 30.07 in 10.0 mi East 6.9 mph - N/A   Overcast
8:35 PM 37.4 °F 32.1 °F 33.8 °F 87% 30.06 in 10.0 mi East 6.9 mph - N/A   Overcast
8:55 PM 37.4 °F 32.8 °F 33.8 °F 87% 30.06 in 10.0 mi East 5.8 mph - N/A   Overcast
9:15 PM 37.4 °F - 33.8 °F 87% 30.07 in 7.0 mi Calm Calm - N/A   Overcast
9:35 PM 37.4 °F 31.4 °F 33.8 °F 87% 30.06 in 10.0 mi East 8.1 mph - N/A   Overcast
9:55 PM 37.4 °F 32.1 °F 33.8 °F 87% 30.07 in 10.0 mi ESE 6.9 mph - N/A   Overcast
10:15 PM 37.4 °F 32.1 °F 33.8 °F 87% 30.06 in 10.0 mi ESE 6.9 mph - N/A   Overcast
10:35 PM 37.4 °F 33.8 °F 33.8 °F 87% 30.06 in 10.0 mi ESE 4.6 mph - N/A   Overcast
10:55 PM 37.4 °F 32.8 °F 33.8 °F 87% 30.05 in 10.0 mi East 5.8 mph - N/A   Overcast
11:15 PM 37.4 °F 33.8 °F 33.8 °F 87% 30.07 in 10.0 mi ESE 4.6 mph - N/A   Overcast
11:35 PM 37.4 °F - 33.8 °F 87% 30.07 in 10.0 mi Calm Calm - N/A   Overcast
11:55 PM 37.4 °F 34.9 °F 33.8 °F 87% 30.04 in 10.0 mi East 3.5 mph - N/A   Overcast